sat.trackr.live / text

‹ back to catalog

STARLINK-31278

NORAD 59163 · 2024-044M

PAYLOAD ACTIVE UNKNOWN

§ Identity

Operator
Country
US
Launch date
2024-03-04
Launch site
AFETR
Launch vehicle
Mass (kg)
RCS (m²)

Purposes: comms

External: N2YO · Heavens-Above · Gunter

§ Orbital elements

Epoch: 2026-09-20T21:43:55.524864Z

Period
94.27 min
Inclination
43.0036°
Eccentricity
0.0001554
Mean motion
15.27577485 rev/d
Perigee alt
482.0 km
Apogee alt
484.1 km
Semi-major
6,861.2 km
B*
-5.9548e-6
RAAN
84.3508°
Arg perigee
268.6092°
Mean anomaly
91.4581°
Rev number
14,342

§ Raw data

STARLINK-312781 59163U 24044M   26263.90550376 -.00000426  00000+0 -59548-5 0  99912 59163  43.0036  84.3508 0001554 268.6092  91.4581 15.27577485143421

JSON: /api/v1/satellites/59163 · /tle

For live sub-satellite position, see the globe view (requires WebGL).

§ Visibility from observer

Set your observer location to see the next 7 days of passes ≥ 10°. The values pass through the URL so the page stays shareable.

No JS? Fill the form by hand. The geolocation button needs JavaScript.